Simultaneous Nadir Overpasses (SNOs) Predictions

Prediction of SNOs between AURA and NPP Satellite Orbit:

Table of predicted SNOs for the next 14.0 days since TLE Epoch: 2/17/2024
Index Date (AURA) Time (AURA) Lat,Lon (AURA) SZA (AURA ) Date (NPP) Time (NPP) Lat,Lon (NPP) SZA (NPP ) Distance(km) Time Diff (sec)
1 02/18/2024 21:47:00 -80.29, -62.11 77.11 02/18/2024 21:46:25 -80.30, -61.94 77.12 3.21 35
2 02/18/2024 22:36:20 80.41, 106.72 102.67 02/18/2024 22:37:05 80.41, 106.83 102.62 2.14 45
3 02/21/2024 12:21:47 -80.36, 79.90 78.17 02/21/2024 12:21:46 -80.37, 80.06 78.19 3.00 1
4 02/24/2024 02:07:12 80.28, 52.82 101.03 02/24/2024 02:06:27 80.29, 52.98 101.03 3.01 45
5 02/24/2024 02:56:34 -80.38,-138.57 79.16 02/24/2024 02:57:09 -80.38,-138.64 79.17 1.31 35
6 02/26/2024 16:41:56 80.35,-165.23 99.95 02/26/2024 16:41:48 80.35,-165.16 99.94 1.41 8
7 02/26/2024 17:31:19 -80.42, 3.09 80.19 02/26/2024 17:32:31 -80.41, 2.92 80.21 3.18 72
8 02/29/2024 06:27:19 -80.26, 167.56 80.88 02/29/2024 06:26:29 -80.26, 167.61 80.85 1.14 50



Historial Predications of SNOs between AURA and NPP
